SDA_1679 (65989 NORAD) Tracking and Keplerian Element Data

This shows tracking and keplerian element data for the satellite.

Feedback or suggestion? Click here.




ElementValue
Catalog65989
NameSDA_1679
Epoch Orbit903
Epoch Day354.15326014
Epoch Year2025
RAAN17.7042
Inclination81.3019
Eccentricity0.0003688
Argument of Perigee347.5146
Mean Anonmoly12.5919
Mean Motion13.85318038
Decay Rate2.17E-06
L11 65989U 25230R 25354.15326014 .00000217 00000+0 18062-3 0 9999
L22 65989 81.3019 17.7042 0003688 347.5146 12.5919 13.85318038 9036



Live tracking and technical data element details for SDA_1679 (NORAD 65989). SDA_1679 can be tracked NOW for your location showing map with azimuth and elevation plus other details from your city location.







IsCatalogInMostPopularTable: catalog: 65989, numindb: 5
Update: records affected: 1



GetName: 65989 SDA_1679

Hit Count: updated at: Mon, 20 Apr 2026 09:59:12 GMT